Location: Champignolles
(47.0543°N, 4.5663°E)
Time: 07:04:20
(UTC+00:00)

Cosmos 923 Rocket - Pass Details

Date: 12 April 2021
Orbit: 759 x 785 km, 74.0° (Epoch: 13 May)

Event Time Altitude Azimuth Distance (km) Brightness Sun altitude
Rises 03:03:54 0° 338° (NNW) 3,229 7.4 -18.6°
Reaches altitude 10° 03:06:17 10° 340° (NNW) 2,300 6.7 -18.3°
Maximum altitude 03:11:30 78° 67° (ENE) 784 4.1 -17.5°
Drops below altitude 10° 03:16:43 10° 154° (SSE) 2,293 6.4 -16.8°
Sets 03:19:05 0° 156° (SSE) 3,218 7.1 -16.5°
